Location: Burland Observatory
(39.4088°N, 105.4217°W)
Time: 17:12:15
(UTC-07:00)

Vanguard 3 - Pass Details

Date: 14 December 2019
Orbit: 507 x 3263 km, 33.4° (Epoch: 22 January)

Event Time Altitude Azimuth Distance (km) Brightness Sun altitude
Rises 09:08:33 0° 263° (W) 3,869 10.3 16.1°
Reaches altitude 10° 09:10:46 10° 260° (W) 3,173 9.9 16.4°
Maximum altitude 09:18:54 63° 181° (S) 1,952 9.7 17.4°
Drops below altitude 10° 09:33:31 10° 106° (ESE) 5,444 12.3 19.0°
Sets 09:38:36 0° 104° (ESE) 6,784 12.6 19.6°
